"FRM_SS3_TRK_CMP_EDR_2991.DAT   ",2006-05-10T04:23:17.00 ,"1/0095314993.38625",    0,    0,   16809,"SS3","B4","B4","B4","B4","PISd",0,2,0,1,"B4", 0,15,   5, 0,    0,"TRK","NO  REC","OK ","OK ",    000936.378,    0040.667,    0176.711,    0016.778,    0063.911
"FRM_SS3_TRK_CMP_EDR_2991.DAT   ",2006-05-10T04:23:18.75 ,"1/0095314995.21872",    0,    1,   16809,"SS3","B4","B4","B4","B4","PISd",0,2,0,1,"B4", 0,15,   5, 0,    0,"TRK","NO  REC","OK ","OK ",    000934.174,    0040.583,    0176.713,    0016.778,    0063.923
"FRM_SS3_TRK_CMP_EDR_2991.DAT   ",2006-05-10T04:23:20.48 ,"1/0095314997.04604",    0,    2,   16809,"SS3","B4","B4","B4","B4","PISd",0,2,0,1,"B4", 0,15,   5, 0,    0,"TRK","NO  REC","OK ","OK ",    000931.983,    0040.499,    0176.714,    0016.779,    0063.934
"FRM_SS3_TRK_CMP_EDR_2991.DAT   ",2006-05-10T04:23:22.22 ,"1/0095314998.52871",    0,    3,   16809,"SS3","B4","B4","B4","B4","PISd",0,2,0,1,"B4", 0,15,   5, 0,    0,"TRK","NO  REC","OK ","OK ",    000929.794,    0040.415,    0176.716,    0016.779,    0063.946
"FRM_SS3_TRK_CMP_EDR_2991.DAT   ",2006-05-10T04:23:23.96 ,"1/0095315000.35603",    0,    4,   16809,"SS3","B4","B4","B4","B4","PISd",0,2,0,1,"B4", 0,15,   5, 0,    0,"TRK","NO  REC","OK ","OK ",    000927.607,    0040.332,    0176.717,    0016.780,    0063.957
"FRM_SS3_TRK_CMP_EDR_2991.DAT   ",2006-05-10T04:23:25.69 ,"1/0095315002.18335",    0,    5,   16809,"SS3","B4","B4","B4","B4","PISd",0,2,0,1,"B4", 0,15,   5, 0,    0,"TRK","NO  REC","OK ","OK ",    000925.423,    0040.248,    0176.719,    0016.781,    0063.969
"FRM_SS3_TRK_CMP_EDR_2991.DAT   ",2006-05-10T04:23:27.42 ,"1/0095315004.00552",    0,    6,   16809,"SS3","B4","B4","B4","B4","PISd",0,2,0,1,"B4", 0,15,   5, 0,    0,"TRK","NO  REC","OK ","OK ",    000923.250,    0040.164,    0176.720,    0016.781,    0063.981
"FRM_SS3_TRK_CMP_EDR_2991.DAT   ",2006-05-10T04:23:29.15 ,"1/0095315005.48305",    0,    7,   16809,"SS3","B4","B4","B4","B4","PISd",0,2,0,1,"B4", 0,15,   5, 0,    0,"TRK","NO  REC","OK ","OK ",    000921.080,    0040.080,    0176.722,    0016.782,    0063.993
"FRM_SS3_TRK_CMP_EDR_2991.DAT   ",2006-05-10T04:23:30.88 ,"1/0095315007.30522",    0,    8,   16809,"SS3","B4","B4","B4","B4","PISd",0,2,0,1,"B4", 0,15,   5, 0,    0,"TRK","NO  REC","OK ","OK ",    000918.913,    0039.996,    0176.723,    0016.782,    0064.004
"FRM_SS3_TRK_CMP_EDR_2991.DAT   ",2006-05-10T04:23:32.60 ,"1/0095315009.12224",    0,    9,   16809,"SS3","B4","B4","B4","B4","PISd",0,2,0,1,"B4", 0,15,   5, 0,    0,"TRK","NO  REC","OK ","OK ",    000916.758,    0039.913,    0176.724,    0016.783,    0064.016
"FRM_SS3_TRK_CMP_EDR_2991.DAT   ",2006-05-10T04:23:34.32 ,"1/0095315010.59462",    0,   10,   16809,"SS3","B4","B4","B4","B4","PISd",0,2,0,1,"B4", 0,15,   5, 0,    0,"TRK","NO  REC","OK ","OK ",    000914.605,    0039.829,    0176.726,    0016.783,    0064.028
"FRM_SS3_TRK_CMP_EDR_2991.DAT   ",2006-05-10T04:23:36.04 ,"1/0095315012.41163",    0,   11,   16809,"SS3","B4","B4","B4","B4","PISd",0,2,0,1,"B4", 0,15,   5, 0,    0,"TRK","NO  REC","OK ","OK ",    000912.454,    0039.746,    0176.727,    0016.784,    0064.040
"FRM_SS3_TRK_CMP_EDR_2991.DAT   ",2006-05-10T04:23:37.76 ,"1/0095315014.22350",    0,   12,   16809,"SS3","B4","B4","B4","B4","PISd",0,2,0,1,"B4", 0,15,   5, 0,    0,"TRK","NO  REC","OK ","OK ",    000910.316,    0039.662,    0176.728,    0016.784,    0064.052
"FRM_SS3_TRK_CMP_EDR_2991.DAT   ",2006-05-10T04:23:39.47 ,"1/0095315016.03537",    0,   13,   16809,"SS3","B4","B4","B4","B4","PISd",0,2,0,1,"B4", 0,15,   5, 0,    0,"TRK","NO  REC","OK ","OK ",    000908.180,    0039.579,    0176.730,    0016.785,    0064.064
"FRM_SS3_TRK_CMP_EDR_2991.DAT   ",2006-05-10T04:23:41.18 ,"1/0095315017.50260",    0,   14,   16809,"SS3","B4","B4","B4","B4","PISd",0,2,0,1,"B4", 0,15,   5, 0,    0,"TRK","NO  REC","OK ","OK ",    000906.046,    0039.495,    0176.731,    0016.786,    0064.077
"FRM_SS3_TRK_CMP_EDR_2991.DAT   ",2006-05-10T04:23:42.89 ,"1/0095315019.30932",    0,   15,   16809,"SS3","B4","B4","B4","B4","PISd",0,2,0,1,"B4", 0,15,   5, 0,    0,"TRK","NO  REC","OK ","OK ",    000903.925,    0039.412,    0176.732,    0016.786,    0064.089
"FRM_SS3_TRK_CMP_EDR_2991.DAT   ",2006-05-10T04:23:44.59 ,"1/0095315021.11604",    0,   16,   16809,"SS3","B4","B4","B4","B4","PISd",0,2,0,1,"B4", 0,15,   5, 0,    0,"TRK","NO  REC","OK ","OK ",    000901.805,    0039.329,    0176.734,    0016.787,    0064.101
"FRM_SS3_TRK_CMP_EDR_2991.DAT   ",2006-05-10T04:23:46.30 ,"1/0095315022.57812",    0,   17,   16809,"SS3","B4","B4","B4","B4","PISd",0,2,0,1,"B4", 0,15,   5, 0,    0,"TRK","NO  REC","OK ","OK ",    000899.689,    0039.245,    0176.735,    0016.787,    0064.113
"FRM_SS3_TRK_CMP_EDR_2991.DAT   ",2006-05-10T04:23:48.00 ,"1/0095315024.38484",    0,   18,   16809,"SS3","B4","B4","B4","B4","PISd",0,2,0,1,"B4", 0,15,   5, 0,    0,"TRK","NO  REC","OK ","OK ",    000897.574,    0039.162,    0176.736,    0016.788,    0064.126
"FRM_SS3_TRK_CMP_EDR_2991.DAT   ",2006-05-10T04:23:49.70 ,"1/0095315026.18641",    0,   19,   16809,"SS3","B4","B4","B4","B4","PISd",0,2,0,1,"B4", 0,15,   5, 0,    0,"TRK","NO  REC","OK ","OK ",    000895.472,    0039.079,    0176.737,    0016.788,    0064.138
"FRM_SS3_TRK_CMP_EDR_2991.DAT   ",2006-05-10T04:23:51.40 ,"1/0095315027.64334",    0,   20,   16809,"SS3","B4","B4","B4","B4","PISd",0,2,0,1,"B4", 0,15,   5, 0,    0,"TRK","NO  REC","OK ","OK ",    000893.372,    0038.995,    0176.739,    0016.789,    0064.151
"FRM_SS3_TRK_CMP_EDR_2991.DAT   ",2006-05-10T04:23:53.09 ,"1/0095315029.44492",    0,   21,   16809,"SS3","B4","B4","B4","B4","PISd",0,2,0,1,"B4", 0,15,   5, 0,    0,"TRK","NO  REC","OK ","OK ",    000891.274,    0038.912,    0176.740,    0016.789,    0064.163
"FRM_SS3_TRK_CMP_EDR_2991.DAT   ",2006-05-10T04:23:54.78 ,"1/0095315031.24134",    0,   22,   16809,"SS3","B4","B4","B4","B4","PISd",0,2,0,1,"B4", 0,15,   5, 0,    0,"TRK","NO  REC","OK ","OK ",    000889.189,    0038.829,    0176.741,    0016.790,    0064.176
"FRM_SS3_TRK_CMP_EDR_2991.DAT   ",2006-05-10T04:23:56.47 ,"1/0095315033.03776",    0,   23,   16809,"SS3","B4","B4","B4","B4","PISd",0,2,0,1,"B4", 0,15,   5, 0,    0,"TRK","NO  REC","OK ","OK ",    000887.105,    0038.746,    0176.742,    0016.791,    0064.189
"FRM_SS3_TRK_CMP_EDR_2991.DAT   ",2006-05-10T04:23:58.16 ,"1/0095315034.48954",    0,   24,   16809,"SS3","B4","B4","B4","B4","PISd",0,2,0,1,"B4", 0,15,   5, 0,    0,"TRK","NO  REC","OK ","OK ",    000885.025,    0038.663,    0176.744,    0016.791,    0064.201
"FRM_SS3_TRK_CMP_EDR_2991.DAT   ",2006-05-10T04:23:59.84 ,"1/0095315036.28081",    0,   25,   16809,"SS3","B4","B4","B4","B4","PISd",0,2,0,1,"B4", 0,15,   5, 0,    0,"TRK","NO  REC","OK ","OK ",    000882.956,    0038.580,    0176.745,    0016.791,    0064.214
"FRM_SS3_TRK_CMP_EDR_2991.DAT   ",2006-05-10T04:24:01.52 ,"1/0095315038.07208",    0,   26,   16809,"SS3","B4","B4","B4","B4","PISd",0,2,0,1,"B4", 0,15,   5, 0,    0,"TRK","NO  REC","OK ","OK ",    000880.889,    0038.497,    0176.746,    0016.792,    0064.227
"FRM_SS3_TRK_CMP_EDR_2991.DAT   ",2006-05-10T04:24:03.21 ,"1/0095315039.51871",    0,   27,   16809,"SS3","B4","B4","B4","B4","PISd",0,2,0,1,"B4", 0,15,   5, 0,    0,"TRK","NO  REC","OK ","OK ",    000878.825,    0038.414,    0176.747,    0016.793,    0064.240
"FRM_SS3_TRK_CMP_EDR_2991.DAT   ",2006-05-10T04:24:04.89 ,"1/0095315041.30998",    0,   28,   16809,"SS3","B4","B4","B4","B4","PISd",0,2,0,1,"B4", 0,15,   5, 0,    0,"TRK","NO  REC","OK ","OK ",    000876.764,    0038.331,    0176.748,    0016.793,    0064.253
"FRM_SS3_TRK_CMP_EDR_2991.DAT   ",2006-05-10T04:24:06.56 ,"1/0095315043.09611",    0,   29,   16809,"SS3","B4","B4","B4","B4","PISd",0,2,0,1,"B4", 0,15,   5, 0,    0,"TRK","NO  REC","OK ","OK ",    000874.714,    0038.248,    0176.749,    0016.794,    0064.265
"FRM_SS3_TRK_CMP_EDR_2991.DAT   ",2006-05-10T04:24:08.23 ,"1/0095315044.53759",    0,   30,   16809,"SS3","B4","B4","B4","B4","PISd",0,2,0,1,"B4", 0,15,   5, 0,    0,"TRK","NO  REC","OK ","OK ",    000872.666,    0038.165,    0176.750,    0016.794,    0064.279
"FRM_SS3_TRK_CMP_EDR_2991.DAT   ",2006-05-10T04:24:09.91 ,"1/0095315046.32371",    0,   31,   16809,"SS3","B4","B4","B4","B4","PISd",0,2,0,1,"B4", 0,15,   5, 0,    0,"TRK","NO  REC","OK ","OK ",    000870.621,    0038.082,    0176.751,    0016.795,    0064.292
"FRM_SS3_TRK_CMP_EDR_2991.DAT   ",2006-05-10T04:24:11.57 ,"1/0095315048.10468",    0,   32,   16809,"SS3","B4","B4","B4","B4","PISd",0,2,0,1,"B4", 0,15,   5, 0,    0,"TRK","NO  REC","OK ","OK ",    000868.588,    0037.999,    0176.753,    0016.795,    0064.305
"FRM_SS3_TRK_CMP_EDR_2991.DAT   ",2006-05-10T04:24:13.24 ,"1/0095315049.54102",    0,   33,   16809,"SS3","B4","B4","B4","B4","PISd",0,2,0,1,"B4", 0,15,   5, 0,    0,"TRK","NO  REC","OK ","OK ",    000866.558,    0037.917,    0176.754,    0016.796,    0064.318
"FRM_SS3_TRK_CMP_EDR_2991.DAT   ",2006-05-10T04:24:14.91 ,"1/0095315051.32199",    0,   34,   16809,"SS3","B4","B4","B4","B4","PISd",0,2,0,1,"B4", 0,15,   5, 0,    0,"TRK","NO  REC","OK ","OK ",    000864.529,    0037.834,    0176.755,    0016.796,    0064.331
"FRM_SS3_TRK_CMP_EDR_2991.DAT   ",2006-05-10T04:24:16.56 ,"1/0095315053.09781",    0,   35,   16809,"SS3","B4","B4","B4","B4","PISd",0,2,0,1,"B4", 0,15,   5, 0,    0,"TRK","NO  REC","OK ","OK ",    000862.513,    0037.751,    0176.756,    0016.797,    0064.344
"FRM_SS3_TRK_CMP_EDR_2991.DAT   ",2006-05-10T04:24:18.22 ,"1/0095315054.52900",    0,   36,   16809,"SS3","B4","B4","B4","B4","PISd",0,2,0,1,"B4", 0,15,   5, 0,    0,"TRK","NO  REC","OK ","OK ",    000860.499,    0037.669,    0176.757,    0016.797,    0064.358
"FRM_SS3_TRK_CMP_EDR_2991.DAT   ",2006-05-10T04:24:19.88 ,"1/0095315056.30482",    0,   37,   16809,"SS3","B4","B4","B4","B4","PISd",0,2,0,1,"B4", 0,15,   5, 0,    0,"TRK","NO  REC","OK ","OK ",    000858.487,    0037.586,    0176.758,    0016.798,    0064.371
"FRM_SS3_TRK_CMP_EDR_2991.DAT   ",2006-05-10T04:24:21.54 ,"1/0095315058.08064",    0,   38,   16809,"SS3","B4","B4","B4","B4","PISd",0,2,0,1,"B4", 0,15,   5, 0,    0,"TRK","NO  REC","OK ","OK ",    000856.478,    0037.503,    0176.759,    0016.798,    0064.384
"FRM_SS3_TRK_CMP_EDR_2991.DAT   ",2006-05-10T04:24:23.19 ,"1/0095315059.50668",    0,   39,   16809,"SS3","B4","B4","B4","B4","PISd",0,2,0,1,"B4", 0,15,   5, 0,    0,"TRK","NO  REC","OK ","OK ",    000854.481,    0037.421,    0176.760,    0016.799,    0064.398
"FRM_SS3_TRK_CMP_EDR_2991.DAT   ",2006-05-10T04:24:24.84 ,"1/0095315061.27735",    0,   40,   16809,"SS3","B4","B4","B4","B4","PISd",0,2,0,1,"B4", 0,15,   5, 0,    0,"TRK","NO  REC","OK ","OK ",    000852.486,    0037.338,    0176.761,    0016.799,    0064.411
"FRM_SS3_TRK_CMP_EDR_2991.DAT   ",2006-05-10T04:24:26.49 ,"1/0095315063.04802",    0,   41,   16809,"SS3","B4","B4","B4","B4","PISd",0,2,0,1,"B4", 0,15,   5, 0,    0,"TRK","NO  REC","OK ","OK ",    000850.493,    0037.256,    0176.762,    0016.800,    0064.425
"FRM_SS3_TRK_CMP_EDR_2991.DAT   ",2006-05-10T04:24:28.13 ,"1/0095315064.46891",    0,   42,   16809,"SS3","B4","B4","B4","B4","PISd",0,2,0,1,"B4", 0,15,   5, 0,    0,"TRK","NO  REC","OK ","OK ",    000848.512,    0037.173,    0176.763,    0016.800,    0064.439
"FRM_SS3_TRK_CMP_EDR_2991.DAT   ",2006-05-10T04:24:29.77 ,"1/0095315066.23443",    0,   43,   16809,"SS3","B4","B4","B4","B4","PISd",0,2,0,1,"B4", 0,15,   5, 0,    0,"TRK","NO  REC","OK ","OK ",    000846.534,    0037.091,    0176.764,    0016.801,    0064.452
"FRM_SS3_TRK_CMP_EDR_2991.DAT   ",2006-05-10T04:24:31.41 ,"1/0095315067.65532",    0,   44,   16809,"SS3","B4","B4","B4","B4","PISd",0,2,0,1,"B4", 0,15,   5, 0,    0,"TRK","NO  REC","OK ","OK ",    000844.558,    0037.009,    0176.765,    0016.801,    0064.466
"FRM_SS3_TRK_CMP_EDR_2991.DAT   ",2006-05-10T04:24:33.06 ,"1/0095315069.42084",    0,   45,   16809,"SS3","B4","B4","B4","B4","PISd",0,2,0,1,"B4", 0,15,   5, 0,    0,"TRK","NO  REC","OK ","OK ",    000842.584,    0036.926,    0176.766,    0016.802,    0064.480
"FRM_SS3_TRK_CMP_EDR_2991.DAT   ",2006-05-10T04:24:34.69 ,"1/0095315071.18121",    0,   46,   16809,"SS3","B4","B4","B4","B4","PISd",0,2,0,1,"B4", 0,15,   5, 0,    0,"TRK","NO  REC","OK ","OK ",    000840.622,    0036.844,    0176.767,    0016.802,    0064.494
"FRM_SS3_TRK_CMP_EDR_2991.DAT   ",2006-05-10T04:24:36.33 ,"1/0095315072.59695",    0,   47,   16809,"SS3","B4","B4","B4","B4","PISd",0,2,0,1,"B4", 0,15,   5, 0,    0,"TRK","NO  REC","OK ","OK ",    000838.663,    0036.762,    0176.767,    0016.803,    0064.507
"FRM_SS3_TRK_CMP_EDR_2991.DAT   ",2006-05-10T04:24:37.96 ,"1/0095315074.35732",    0,   48,   16809,"SS3","B4","B4","B4","B4","PISd",0,2,0,1,"B4", 0,15,   5, 0,    0,"TRK","NO  REC","OK ","OK ",    000836.705,    0036.679,    0176.768,    0016.803,    0064.521
"FRM_SS3_TRK_CMP_EDR_2991.DAT   ",2006-05-10T04:24:39.59 ,"1/0095315076.11255",    0,   49,   16809,"SS3","B4","B4","B4","B4","PISd",0,2,0,1,"B4", 0,15,   5, 0,    0,"TRK","NO  REC","OK ","OK ",    000834.760,    0036.597,    0176.769,    0016.804,    0064.535
"FRM_SS3_TRK_CMP_EDR_2991.DAT   ",2006-05-10T04:24:41.21 ,"1/0095315077.52313",    0,   50,   16809,"SS3","B4","B4","B4","B4","PISd",0,2,0,1,"B4", 0,15,   5, 0,    0,"TRK","NO  REC","OK ","OK ",    000832.817,    0036.515,    0176.770,    0016.804,    0064.549
"FRM_SS3_TRK_CMP_EDR_2991.DAT   ",2006-05-10T04:24:42.84 ,"1/0095315079.27836",    0,   51,   16809,"SS3","B4","B4","B4","B4","PISd",0,2,0,1,"B4", 0,15,   5, 0,    0,"TRK","NO  REC","OK ","OK ",    000830.876,    0036.433,    0176.771,    0016.805,    0064.563
"FRM_SS3_TRK_CMP_EDR_2991.DAT   ",2006-05-10T04:24:44.47 ,"1/0095315081.03358",    0,   52,   16809,"SS3","B4","B4","B4","B4","PISd",0,2,0,1,"B4", 0,15,   5, 0,    0,"TRK","NO  REC","OK ","OK ",    000828.938,    0036.351,    0176.772,    0016.805,    0064.578
"FRM_SS3_TRK_CMP_EDR_2991.DAT   ",2006-05-10T04:24:46.08 ,"1/0095315082.43902",    0,   53,   16809,"SS3","B4","B4","B4","B4","PISd",0,2,0,1,"B4", 0,15,   5, 0,    0,"TRK","NO  REC","OK ","OK ",    000827.011,    0036.269,    0176.773,    0016.806,    0064.592
"FRM_SS3_TRK_CMP_EDR_2991.DAT   ",2006-05-10T04:24:47.70 ,"1/0095315084.18910",    0,   54,   16809,"SS3","B4","B4","B4","B4","PISd",0,2,0,1,"B4", 0,15,   5, 0,    0,"TRK","NO  REC","OK ","OK ",    000825.087,    0036.187,    0176.774,    0016.806,    0064.606
"FRM_SS3_TRK_CMP_EDR_2991.DAT   ",2006-05-10T04:24:49.32 ,"1/0095315085.59453",    0,   55,   16809,"SS3","B4","B4","B4","B4","PISd",0,2,0,1,"B4", 0,15,   5, 0,    0,"TRK","NO  REC","OK ","OK ",    000823.165,    0036.105,    0176.774,    0016.807,    0064.620
"FRM_SS3_TRK_CMP_EDR_2991.DAT   ",2006-05-10T04:24:50.94 ,"1/0095315087.34461",    0,   56,   16809,"SS3","B4","B4","B4","B4","PISd",0,2,0,1,"B4", 0,15,   5, 0,    0,"TRK","NO  REC","OK ","OK ",    000821.246,    0036.023,    0176.775,    0016.808,    0064.635
"FRM_SS3_TRK_CMP_EDR_2991.DAT   ",2006-05-10T04:24:52.55 ,"1/0095315089.08953",    0,   57,   16809,"SS3","B4","B4","B4","B4","PISd",0,2,0,1,"B4", 0,15,   5, 0,    0,"TRK","NO  REC","OK ","OK ",    000819.338,    0035.941,    0176.776,    0016.808,    0064.649
"FRM_SS3_TRK_CMP_EDR_2991.DAT   ",2006-05-10T04:24:54.16 ,"1/0095315090.48982",    0,   58,   16809,"SS3","B4","B4","B4","B4","PISd",0,2,0,1,"B4", 0,15,   5, 0,    0,"TRK","NO  REC","OK ","OK ",    000817.432,    0035.859,    0176.777,    0016.808,    0064.663
"FRM_SS3_TRK_CMP_EDR_2991.DAT   ",2006-05-10T04:24:55.77 ,"1/0095315092.23474",    0,   59,   16809,"SS3","B4","B4","B4","B4","PISd",0,2,0,1,"B4", 0,15,   5, 0,    0,"TRK","NO  REC","OK ","OK ",    000815.529,    0035.777,    0176.778,    0016.809,    0064.678
"FRM_SS3_TRK_CMP_EDR_2991.DAT   ",2006-05-10T04:24:57.38 ,"1/0095315093.62988",    0,   60,   16809,"SS3","B4","B4","B4","B4","PISd",0,2,0,1,"B4", 0,15,   5, 0,    0,"TRK","NO  REC","OK ","OK ",    000813.638,    0035.696,    0176.778,    0016.809,    0064.692
"FRM_SS3_TRK_CMP_EDR_2991.DAT   ",2006-05-10T04:24:58.98 ,"1/0095315095.36966",    0,   61,   16809,"SS3","B4","B4","B4","B4","PISd",0,2,0,1,"B4", 0,15,   5, 0,    0,"TRK","NO  REC","OK ","OK ",    000811.749,    0035.614,    0176.779,    0016.810,    0064.707
"FRM_SS3_TRK_CMP_EDR_2991.DAT   ",2006-05-10T04:25:00.58 ,"1/0095315097.10943",    0,   62,   16809,"SS3","B4","B4","B4","B4","PISd",0,2,0,1,"B4", 0,15,   5, 0,    0,"TRK","NO  REC","OK ","OK ",    000809.862,    0035.532,    0176.780,    0016.810,    0064.721
"FRM_SS3_TRK_CMP_EDR_2991.DAT   ",2006-05-10T04:25:02.18 ,"1/0095315098.50457",    0,   63,   16809,"SS3","B4","B4","B4","B4","PISd",0,2,0,1,"B4", 0,15,   5, 0,    0,"TRK","NO  REC","OK ","OK ",    000807.978,    0035.450,    0176.781,    0016.811,    0064.736
"FRM_SS3_TRK_CMP_EDR_2991.DAT   ",2006-05-10T04:25:03.78 ,"1/0095315100.23920",    0,   64,   16809,"SS3","B4","B4","B4","B4","PISd",0,2,0,1,"B4", 0,15,   5, 0,    0,"TRK","NO  REC","OK ","OK ",    000806.105,    0035.369,    0176.781,    0016.811,    0064.751
"FRM_SS3_TRK_CMP_EDR_2991.DAT   ",2006-05-10T04:25:05.37 ,"1/0095315101.62919",    0,   65,   16809,"SS3","B4","B4","B4","B4","PISd",0,2,0,1,"B4", 0,15,   5, 0,    0,"TRK","NO  REC","OK ","OK ",    000804.235,    0035.287,    0176.782,    0016.812,    0064.766
"FRM_SS3_TRK_CMP_EDR_2991.DAT   ",2006-05-10T04:25:06.97 ,"1/0095315103.36381",    0,   66,   16809,"SS3","B4","B4","B4","B4","PISd",0,2,0,1,"B4", 0,15,   5, 0,    0,"TRK","NO  REC","OK ","OK ",    000802.367,    0035.205,    0176.783,    0016.812,    0064.780
"FRM_SS3_TRK_CMP_EDR_2991.DAT   ",2006-05-10T04:25:08.56 ,"1/0095315105.09844",    0,   67,   16809,"SS3","B4","B4","B4","B4","PISd",0,2,0,1,"B4", 0,15,   5, 0,    0,"TRK","NO  REC","OK ","OK ",    000800.501,    0035.124,    0176.784,    0016.813,    0064.795
"FRM_SS3_TRK_CMP_EDR_2991.DAT   ",2006-05-10T04:25:10.15 ,"1/0095315106.48328",    0,   68,   16809,"SS3","B4","B4","B4","B4","PISd",0,2,0,1,"B4", 0,15,   5, 0,    0,"TRK","NO  REC","OK ","OK ",    000798.647,    0035.042,    0176.784,    0016.813,    0064.810
"FRM_SS3_TRK_CMP_EDR_2991.DAT   ",2006-05-10T04:25:11.74 ,"1/0095315108.21276",    0,   69,   16809,"SS3","B4","B4","B4","B4","PISd",0,2,0,1,"B4", 0,15,   5, 0,    0,"TRK","NO  REC","OK ","OK ",    000796.795,    0034.961,    0176.785,    0016.814,    0064.825
"FRM_SS3_TRK_CMP_EDR_2991.DAT   ",2006-05-10T04:25:13.33 ,"1/0095315109.59759",    0,   70,   16809,"SS3","B4","B4","B4","B4","PISd",0,2,0,1,"B4", 0,15,   5, 0,    0,"TRK","NO  REC","OK ","OK ",    000794.946,    0034.879,    0176.786,    0016.814,    0064.840
"FRM_SS3_TRK_CMP_EDR_2991.DAT   ",2006-05-10T04:25:14.91 ,"1/0095315111.32192",    0,   71,   16809,"SS3","B4","B4","B4","B4","PISd",0,2,0,1,"B4", 0,15,   5, 0,    0,"TRK","NO  REC","OK ","OK ",    000793.108,    0034.798,    0176.786,    0016.815,    0064.855
"FRM_SS3_TRK_CMP_EDR_2991.DAT   ",2006-05-10T04:25:16.49 ,"1/0095315113.04625",    0,   72,   16809,"SS3","B4","B4","B4","B4","PISd",0,2,0,1,"B4", 0,15,   5, 0,    0,"TRK","NO  REC","OK ","OK ",    000791.272,    0034.717,    0176.787,    0016.815,    0064.870
"FRM_SS3_TRK_CMP_EDR_2991.DAT   ",2006-05-10T04:25:18.06 ,"1/0095315114.42594",    0,   73,   16809,"SS3","B4","B4","B4","B4","PISd",0,2,0,1,"B4", 0,15,   5, 0,    0,"TRK","NO  REC","OK ","OK ",    000789.439,    0034.635,    0176.788,    0016.816,    0064.885
"FRM_SS3_TRK_CMP_EDR_2991.DAT   ",2006-05-10T04:25:19.64 ,"1/0095315116.15027",    0,   74,   16809,"SS3","B4","B4","B4","B4","PISd",0,2,0,1,"B4", 0,15,   5, 0,    0,"TRK","NO  REC","OK ","OK ",    000787.608,    0034.554,    0176.788,    0016.816,    0064.900
"FRM_SS3_TRK_CMP_EDR_2991.DAT   ",2006-05-10T04:25:21.22 ,"1/0095315117.52480",    0,   75,   16809,"SS3","B4","B4","B4","B4","PISd",0,2,0,1,"B4", 0,15,   5, 0,    0,"TRK","NO  REC","OK ","OK ",    000785.789,    0034.473,    0176.789,    0016.816,    0064.916
"FRM_SS3_TRK_CMP_EDR_2991.DAT   ",2006-05-10T04:25:22.79 ,"1/0095315119.24398",    0,   76,   16809,"SS3","B4","B4","B4","B4","PISd",0,2,0,1,"B4", 0,15,   5, 0,    0,"TRK","NO  REC","OK ","OK ",    000783.972,    0034.392,    0176.790,    0016.817,    0064.931
"FRM_SS3_TRK_CMP_EDR_2991.DAT   ",2006-05-10T04:25:24.36 ,"1/0095315120.61852",    0,   77,   16809,"SS3","B4","B4","B4","B4","PISd",0,2,0,1,"B4", 0,15,   5, 0,    0,"TRK","NO  REC","OK ","OK ",    000782.158,    0034.310,    0176.790,    0016.817,    0064.946
"FRM_SS3_TRK_CMP_EDR_2991.DAT   ",2006-05-10T04:25:25.93 ,"1/0095315122.33770",    0,   78,   16809,"SS3","B4","B4","B4","B4","PISd",0,2,0,1,"B4", 0,15,   5, 0,    0,"TRK","NO  REC","OK ","OK ",    000780.345,    0034.229,    0176.791,    0016.818,    0064.962
"FRM_SS3_TRK_CMP_EDR_2991.DAT   ",2006-05-10T04:25:27.49 ,"1/0095315124.05173",    0,   79,   16809,"SS3","B4","B4","B4","B4","PISd",0,2,0,1,"B4", 0,15,   5, 0,    0,"TRK","NO  REC","OK ","OK ",    000778.545,    0034.148,    0176.792,    0016.818,    0064.977
"FRM_SS3_TRK_CMP_EDR_2991.DAT   ",2006-05-10T04:25:29.08 ,"1/0095315125.43657",    1,    0,   71004,"SS3","B4","B3","B4","B3","PISd",0,2,0,1,"B3", 0,15,   6, 1,    0,"TRK","NO  REC","OK ","OK ",    000776.719,    0034.066,    0176.792,    0016.819,    0064.993
"FRM_SS3_TRK_CMP_EDR_2991.DAT   ",2006-05-10T04:25:30.79 ,"1/0095315127.24844",    1,    1,   71004,"SS3","B4","B3","B4","B3","PISd",0,2,0,1,"B3", 0,15,   6, 1,    0,"TRK","NO  REC","OK ","OK ",    000774.752,    0033.977,    0176.793,    0016.819,    0065.010
"FRM_SS3_TRK_CMP_EDR_2991.DAT   ",2006-05-10T04:25:32.51 ,"1/0095315129.06031",    1,    2,   71004,"SS3","B4","B3","B4","B3","PISd",0,2,0,1,"B3", 0,15,   6, 1,    0,"TRK","NO  REC","OK ","OK ",    000772.787,    0033.888,    0176.794,    0016.820,    0065.027
"FRM_SS3_TRK_CMP_EDR_2991.DAT   ",2006-05-10T04:25:34.21 ,"1/0095315130.52239",    1,    3,   71004,"SS3","B4","B3","B4","B3","PISd",0,2,0,1,"B3", 0,15,   6, 1,    0,"TRK","NO  REC","OK ","OK ",    000770.834,    0033.799,    0176.794,    0016.820,    0065.044
"FRM_SS3_TRK_CMP_EDR_2991.DAT   ",2006-05-10T04:25:35.92 ,"1/0095315132.32911",    1,    4,   71004,"SS3","B4","B3","B4","B3","PISd",0,2,0,1,"B3", 0,15,   6, 1,    0,"TRK","NO  REC","OK ","OK ",    000768.884,    0033.711,    0176.795,    0016.821,    0065.061
"FRM_SS3_TRK_CMP_EDR_2991.DAT   ",2006-05-10T04:25:37.62 ,"1/0095315134.13583",    1,    5,   71004,"SS3","B4","B3","B4","B3","PISd",0,2,0,1,"B3", 0,15,   6, 1,    0,"TRK","NO  REC","OK ","OK ",    000766.937,    0033.622,    0176.795,    0016.821,    0065.078
"FRM_SS3_TRK_CMP_EDR_2991.DAT   ",2006-05-10T04:25:39.33 ,"1/0095315135.59791",    1,    6,   71004,"SS3","B4","B3","B4","B3","PISd",0,2,0,1,"B3", 0,15,   6, 1,    0,"TRK","NO  REC","OK ","OK ",    000764.993,    0033.533,    0176.796,    0016.822,    0065.095
"FRM_SS3_TRK_CMP_EDR_2991.DAT   ",2006-05-10T04:25:41.02 ,"1/0095315137.39948",    1,    7,   71004,"SS3","B4","B3","B4","B3","PISd",0,2,0,1,"B3", 0,15,   6, 1,    0,"TRK","NO  REC","OK ","OK ",    000763.061,    0033.445,    0176.797,    0016.822,    0065.113
"FRM_SS3_TRK_CMP_EDR_2991.DAT   ",2006-05-10T04:25:42.72 ,"1/0095315139.20105",    1,    8,   71004,"SS3","B4","B3","B4","B3","PISd",0,2,0,1,"B3", 0,15,   6, 1,    0,"TRK","NO  REC","OK ","OK ",    000761.131,    0033.356,    0176.797,    0016.823,    0065.130
"FRM_SS3_TRK_CMP_EDR_2991.DAT   ",2006-05-10T04:25:44.42 ,"1/0095315141.00262",    1,    9,   71004,"SS3","B4","B3","B4","B3","PISd",0,2,0,1,"B3", 0,15,   6, 1,    0,"TRK","NO  REC","OK ","OK ",    000759.204,    0033.267,    0176.798,    0016.823,    0065.148
"FRM_SS3_TRK_CMP_EDR_2991.DAT   ",2006-05-10T04:25:46.11 ,"1/0095315142.45440",    1,   10,   71004,"SS3","B4","B3","B4","B3","PISd",0,2,0,1,"B3", 0,15,   6, 1,    0,"TRK","IEC  OK","OK ","OK ",    000757.289,    0033.179,    0176.798,    0016.824,    0065.165